Miscellaneous Local Product
Issued by NWS Hastings, NE

Home | Current Version | Previous Version | Graphics & Text | Print | Product List | Glossary On
Versions: 1 2 3 4 5 6 7 8 9 10 11 12 13 14 15 16 17 18 19 20 21 22 23 24 25 26 27 28 29 30 31 32 33 34 35 36 37 38 39 40 41 42 43 44 45 46 47 48 49 50
000
AXUS43 KGID 211702
MISGRI

GID CWA HOURLY WEATHER ROUNDUP
NATIONAL WEATHER SERVICE HASTINGS NE
1200 PM CDT SUN MAY 21 2017

NOTE: "FAIR" INDICATES FEW OR NO CLOUDS BELOW 12,000 FEET WITH NO
SIGNIFICANT WEATHER AND/OR OBSTRUCTIONS TO VISIBILITY.

...SOUTH CENTRAL NEBRASKA...

CITY           SKY/WX    TMP DP  RH WIND       PRES   REMARKS
GRAND ISLAND   SUNNY     60  43  53 W7        30.14R
HASTINGS       SUNNY     61  39  44 W10       30.15R
KEARNEY        SUNNY     61  43  51 SW10      30.15S
ORD            SUNNY     60  40  47 NW10      30.11R
YORK           SUNNY     57  43  58 NW14      30.14R
AURORA         SUNNY     59  41  52 NW6       30.13S
LEXINGTON      SUNNY     63  44  51 NW12      30.15S
HOLDREGE       SUNNY     62  39  42 NW8       30.15F
HEBRON         SUNNY     60  43  52 W7        30.15S

...NEBRASKA PANHANDLE...

CITY           SKY/WX    TMP DP  RH WIND       PRES   REMARKS
CHADRON        CLOUDY    61  40  45 W12       30.13S
ALLIANCE       MOSUNNY   62  40  44 NW12      30.15S
SCOTTSBLUFF    CLOUDY    61  42  49 W8        30.17S
SIDNEY         MOSUNNY   60  38  43 NW9       30.19S

...WESTERN AND NORTH CENTRAL NEBRASKA...

CITY           SKY/WX    TMP DP  RH WIND       PRES   REMARKS
VALENTINE      SUNNY     64  30  27 NW10      30.09S
AINSWORTH      SUNNY     59  40  49 N12       30.10R
ONEILL         SUNNY     57  39  51 NW21      30.10R
BROKEN BOW     SUNNY     61  39  44 NW17      30.12R
IMPERIAL       MOSUNNY   65  42  43 N10       30.17S
NORTH PLATTE   SUNNY     63  44  50 W8        30.15S
MCCOOK         SUNNY     65  47  52 W12G17    30.16S

...EASTERN NEBRASKA...

CITY           SKY/WX    TMP DP  RH WIND       PRES   REMARKS
NORFOLK        SUNNY     57  41  55 NW17G25   30.07R
SO SIOUX CITY  CLOUDY    51  41  68 NW18      30.05S
TEKAMAH        PTSUNNY   53  42  66 W18       30.08R
COLUMBUS       MOSUNNY   57  41  54 NW16      30.12S
ALBION         SUNNY     58  39  48 NW14      30.11R
OMAHA EPPLEY   PTSUNNY   56  40  55 W17G23    30.09R
OFFUTT AFB     MOSUNNY   57  40  53 W16G26    30.09R
MILLARD        MOSUNNY   57  42  57 NW17G28   30.10S
LINCOLN        SUNNY     61  40  45 NW17G23   30.13S
NEBRASKA CITY  SUNNY     58  38  48 W14G24    30.11S
BEATRICE       SUNNY     60  44  57 W15       30.14S
FALLS CITY     SUNNY     60  43  53 W16       30.13R

...NORTHERN KANSAS...

CITY           SKY/WX    TMP DP  RH WIND       PRES   REMARKS
GOODLAND       SUNNY     65  43  44 W6G16     30.18S
HILL CITY      SUNNY     69  43  38 W10       30.17S
NORTON         SUNNY     64  41  42 NW8       30.16S
PHILLIPSBURG   SUNNY     66  41  39 W12       30.16S
SMITH CENTER   SUNNY     64  43  45 NW9       30.17S
HAYS           SUNNY     66  47  50 VRB6      30.17F
RUSSELL        SUNNY     66  44  45 VRB5      30.16F
CONCORDIA      SUNNY     62  47  57 VRB6      30.16S
SALINA         SUNNY     69  49  48 W7        30.18S
TOPEKA         SUNNY     60  47  61 W9        30.17S



USA.gov is the U.S. government's official web portal to all federal, state and local government web resources and services.